This demonstration page uses our WeatherBlox Daily Observations layout. Learn more.

Left ArrowRight Arrow

Hourly Observations for December 31, 2018

Temp ( °F °C ) Dew Point ( °F °C ) Humidity (%) Winds ( mph kmh ) Pressure ( in mb ) Visibility ( mi km ) Precip ( " mm )
12:53 am 00:53 Clear with Mist and Fog 25 -3.9 23 -5 92 92 Calm 29.67 1005 6 10 0.00 0.00
1:53 am 01:53 Clear with Mist and Fog 21 -6.1 19 -7.2 92 92 NW 3 6 29.66 1005 5 8 0.00 0.00
2:53 am 02:53 Clear 21 -6.1 18 -7.8 88 88 ESE 5 7 29.65 1004 7 11 0.00 0.00
3:27 am 03:27 Partly Cloudy with Mist and Fog 27 -3 23 -5 86 86 ESE 8 13 29.74 1007 5 8 0.00 0.00
3:38 am 03:38 Mostly Cloudy with Mist and Fog 27 -2.8 24 -4.4 89 89 SSE 3 6 29.74 1007 4 6 0.00 0.00
3:53 am 03:53 Cloudy with Mist and Fog 27 -2.8 26 -3.3 96 96 Calm 29.65 1004 4 6 0.00 0.00
4:53 am 04:53 Cloudy with Mist and Fog 28 -2.2 27 -2.8 96 96 Calm 29.64 1004 3 5 0.00 0.00
5:20 am 05:20 Cloudy with Mist and Fog 28 -2 25 -4 86 86 Calm 29.71 1006 4 6 0.00 0.00
5:53 am 05:53 Cloudy with Mist and Fog 28 -2.2 26 -3.3 92 92 NW 7 11 29.65 1004 4 6 0.00 0.00
6:46 am 06:46 Cloudy with Mist and Fog 25 -4 23 -5 93 93 NNW 8 13 29.74 1007 3 4 0.00 0.00
6:53 am 06:53 Mostly Cloudy with Mist and Fog 25 -3.9 23 -5 92 92 NNW 8 13 29.67 1005 3 4 0.00 0.00
6:59 am 06:59 Partly Cloudy with Mist and Fog 25 -3.9 23 -5 92 92 NNW 9 15 29.74 1007 4 6 0.00 0.00
7:35 am 07:35 Mostly Cloudy 27 -2.8 22 -5.6 81 81 N 18 30 29.77 1008 10 16 0.00 0.00
7:42 am 07:42 Mostly Cloudy 28 -2 23 -5 80 80 N 20 31 29.77 1008 10 16 0.00 0.00
7:53 am 07:53 Cloudy 28 -2.2 24 -4.4 85 85 N 18 30 29.72 1006 9 14 0.00 0.00
8:53 am 08:53 Cloudy with Mist and Fog 30 -1.1 27 -2.8 88 88 N 28 44 29.78 1009 5 8 0.00 0.00
9:53 am 09:53 Cloudy with Mist and Fog 24 -4.4 20 -6.7 84 84 N 31 50 29.86 1011 5 8 0.00 0.00
10:36 am 10:36 Cloudy 22 -5.6 17 -8.3 82 82 N 33 54 29.94 1014 7 11 0.00 0.00
10:53 am 10:53 Cloudy 22 -5.6 16 -8.9 78 78 N 32 52 29.91 1013 8 13 0.00 0.00
11:16 am 11:16 Cloudy 21 -6.1 14 -10 74 74 N 32 52 29.97 1015 9 14 0.00 0.00
11:53 am 11:53 Cloudy 21 -6.1 14 -10 74 74 N 30 48 29.92 1013 8 13 0.00 0.03
12:53 pm 12:53 Windy with Snow Likely 19 -7.2 11 -11.7 71 71 NNW 26 43 29.96 1015 6 10 0.00 0.03
1:53 pm 13:53 Windy with Snow Likely 19 -7.2 11 -11.7 71 71 NNW 31 50 30.02 1017 6 10 0.00 0.03
2:53 pm 14:53 Windy with Snow Likely 17 -8.3 8 -13.3 68 68 N 33 54 30.07 1018 7 11 0.00 0.03
3:42 pm 15:42 Very Windy with Snow Likely 16 -9 9 -13 73 73 N 39 63 30.18 1022 7 11 0.00 0.00
3:53 pm 15:53 Windy with Snow Likely 16 -8.9 8 -13.3 71 71 N 31 50 30.09 1019 4 6 0.00 0.03
4:15 pm 16:15 Windy with Snow Likely 15 -9.4 7 -13.9 70 70 NNW 35 56 30.21 1023 6 10 0.00 0.03
4:22 pm 16:22 Cloudy 16 -9 7 -14 67 67 NNW 35 56 30.21 1023 7 11 0.00 0.00
4:53 pm 16:53 Cloudy 13 -10.6 5 -15 70 70 N 31 50 30.16 1021 7 11 0.00 0.03
5:05 pm 17:05 Windy with Snow Likely 13 -10.6 5 -15 70 70 N 31 50 30.27 1025 4 6 0.00 0.03
5:12 pm 17:12 Cloudy 12 -11 5 -15 73 73 N 36 57 30.30 1026 8 13 0.00 0.00
5:28 pm 17:28 Cloudy 12 -11.1 3 -16.1 67 67 N 33 54 30.30 1026 9 14 0.00 0.03
5:53 pm 17:53 Partly Cloudy 11 -11.7 2 -16.7 67 67 N 32 52 30.19 1022 10 16 0.00 0.03
6:22 pm 18:22 Mostly Cloudy 10 -12 1 -17 67 67 N 30 48 30.33 1027 10 16 0.00 0.00
6:49 pm 18:49 Cloudy 10 -12 3 -16 72 72 N 28 44 30.36 1028 10 16 0.00 0.00
6:53 pm 18:53 Cloudy 11 -11.7 2 -16.7 67 67 N 32 52 30.27 1025 10 16 0.00 0.00
7:53 pm 19:53 Cloudy 11 -11.7 3 -16.1 70 70 N 22 35 30.29 1026 8 13 0.00 0.00
8:53 pm 20:53 Cloudy with Haze 9 -12.8 2 -16.7 73 73 N 20 31 30.34 1027 6 10 0.00 0.03
9:15 pm 21:15 Cloudy 9 -12.8 1 -17.2 70 70 N 22 35 30.45 1031 9 14 0.00 0.00
9:53 pm 21:53 Cloudy 9 -12.8 1 -17.2 70 70 NNW 23 37 30.40 1030 10 16 0.00 0.00
10:53 pm 22:53 Cloudy 8 -13.3 -3 -19.4 60 60 N 26 43 30.42 1030 10 16 0.00 0.00
11:53 pm 23:53 Cloudy 8 -13.3 -3 -19.4 60 60 N 24 39 30.44 1031 10 16 0.00 0.00

Powered by AerisWeather